Home   Weather   Ivalo   Past weeks

Flag for Finland Past Weather in Ivalo, Finland — Yesterday and Last 2 Weeks

32 °F


Feels Like: 29 °F
Forecast: 28 / 34 °F
Wind: 3 mph from Southwest

Location: Ivalo

Current Time: Oct 23, 2016 at 2:37:54 AM

Latest Report: Oct 23, 2016 at 1:50 AM

Visibility: N/A

Pressure: 30.77 "Hg

Humidity: 93%

Dew Point: 30 °F

Location of IvaloLocation

Past Weather in Ivalo — Graph


Ivalo Temperature Yesterday

Maximum temperature yesterday: 39 °F (at 2:20 PM)
Minimum temperature yesterday: 30 °F (at 12:20 AM)
Average temperature yesterday: 34 °F

High & Low Weather Summary for the Past Weeks

High46 °F (Oct 8, 12:50 PM)100% (Oct 10, 3:20 AM)30.77 "Hg (Oct 10, 3:20 AM)
Low25 °F (Oct 17, 2:50 AM)71% (Oct 8, 12:50 PM)30.12 "Hg (Oct 18, 11:20 PM)
Average35 °F91%30.47 "Hg
* Reported Oct 8 1:20 AM — Oct 23 1:20 AM, Ivalo, Weather by CustomWeather, © 2016

Note: Actual official high and low records may vary slightly from our data, if they occured in-between our weather recording intervals... More about our weather records


Ivalo Weather History for the Previous 24 Hours

Scroll right to see more
Time TempWeatherWind HumidityBarometerVisibility
1:20 AM
Sun, Oct 23
34 °FOvercast.3 mph87%30.77 "HgN/A
12:50 AM34 °FOvercast.5 mph87%30.77 "HgN/A
12:20 AM34 °FOvercast.No wind93%30.77 "HgN/A
11:50 PM
Sat, Oct 22
34 °FSnow flurries. Overcast.3 mph87%30.77 "HgN/A
11:20 PM34 °FPassing clouds.3 mph87%30.77 "HgN/A
10:50 PM32 °FLight rain. Overcast.No wind93%30.77 "Hg5 mi
10:20 PM32 °FLight snow. Overcast.No wind93%30.77 "HgN/A
9:50 PM32 °FOvercast.No wind93%30.77 "HgN/A
9:20 PM32 °FOvercast.No wind93%30.77 "HgN/A
8:50 PM30 °FOvercast.No wind93%30.74 "HgN/A
8:20 PM30 °FPassing clouds.No wind93%30.74 "HgN/A
7:50 PM30 °FPassing clouds.No wind93%30.74 "HgN/A
7:20 PM32 °FClear.3 mph87%30.74 "Hg10 mi
6:50 PM34 °FPassing clouds.5 mph81%30.74 "HgN/A
6:20 PM34 °FPassing clouds.5 mph87%30.74 "HgN/A
5:50 PM34 °FPassing clouds.5 mph87%30.74 "HgN/A
5:20 PM34 °FPassing clouds.5 mph93%30.74 "HgN/A
4:50 PM34 °FPassing clouds.5 mph87%30.74 "HgN/A
4:20 PM36 °FPartly sunny.3 mph81%30.74 "HgN/A
3:50 PM37 °FOvercast.6 mph81%30.74 "HgN/A
3:20 PM37 °FOvercast.6 mph81%30.74 "HgN/A
2:50 PM37 °FOvercast.7 mph81%30.74 "HgN/A
2:20 PM39 °FPartly sunny.7 mph75%30.74 "HgN/A
1:50 PM37 °FPassing clouds.7 mph81%30.74 "HgN/A
1:20 PM37 °FPartly sunny.7 mph87%30.74 "HgN/A
12:20 PM37 °FPartly sunny.7 mph87%30.74 "HgN/A
11:50 AM37 °FPartly sunny.7 mph87%30.72 "HgN/A
11:20 AM37 °FPartly sunny.3 mph93%30.72 "HgN/A
10:50 AM37 °FPartly sunny.1 mph93%30.72 "HgN/A
10:20 AM37 °FMostly cloudy.2 mph93%30.72 "Hg4 mi
9:50 AM36 °FMore clouds than sun.3 mph100%30.72 "HgN/A
9:20 AM36 °FLow clouds.2 mph100%30.72 "HgN/A
8:50 AM36 °FLow clouds.No wind100%30.69 "HgN/A
8:20 AM36 °FLow clouds.5 mph100%30.69 "HgN/A
7:50 AM34 °FLow clouds.No wind100%30.69 "HgN/A
7:20 AM34 °FLow clouds.2 mph100%30.69 "HgN/A
6:50 AM32 °FMostly cloudy.No wind100%30.69 "HgN/A
6:20 AM32 °FPassing clouds.No wind100%30.69 "HgN/A
5:50 AM32 °FPassing clouds.No wind100%30.69 "HgN/A
5:20 AM32 °FSprinkles. Passing clouds.No wind100%30.66 "HgN/A
4:50 AM32 °FLight freezing rain. Passing clouds.No wind100%30.69 "HgN/A
4:20 AM32 °FLight freezing rain. Overcast.No wind100%30.69 "HgN/A
3:20 AM32 °FOvercast.5 mph100%30.66 "HgN/A
2:50 AM32 °FOvercast.No wind100%30.66 "HgN/A
2:20 AM32 °FOvercast.No wind93%30.66 "HgN/A
Weather by CustomWeather, © 2016

See weather overviewHow to use our weather pages